Tracking 29892 objects as of 21-Nov-2024
HD Live streaming from Space Station
objects crossing your sky now

NOAA 16 DEB

Track NOAA 16 DEB now!
10-day predictions


NORAD ID: 41283
Int'l Code: 2000-055GK
Perigee: 837.7 km
Apogee: 927.1 km
Inclination: 98.8 °
Period: 102.5 minutes
Semi major axis: 7253 km
RCS: Unknown
Launch date: September 21, 2000
Source: United States (US)
Launch site: AIR FORCE WESTERN TEST RANGE (AFWTR)

Note: This is SATELLITE DEBRIS
Your satellite tracking list
Your tracking list is empty




NASA's NSSDC Master Catalog

Two Line Element Set (TLE):
1 41283U 00055GK  24325.39020805  .00003987  00000-0  24431-2 0  9994
2 41283  98.7998 306.4153 0061656 172.8526 187.3536 14.05376948455911
Source of the keplerian elements: AFSPC